Time,TemperatureF,DewpointF,PressureIn,WindDirection,WindDirectionDegrees,WindSpeedMPH,WindSpeedGustMPH,Humidity,HourlyPrecipIn,Conditions,Clouds,dailyrainin,SoftwareType,DateUTC
2013-08-23 00:03:00,81.0,66.0,-100.00,North,-999,-999.0,-999.0,59,0.00,,,0.00,,2013-08-23 05:03:00,
2013-08-23 00:22:00,79.0,67.0,-100.00,North,-999,-999.0,-999.0,66,0.00,,,-99.99,,2013-08-23 05:22:00,
2013-08-23 00:52:00,78.0,68.0,-100.00,North,-999,-999.0,-999.0,71,-99.99,,,0.00,,2013-08-23 05:52:00,
2013-08-23 01:21:00,77.0,69.0,-100.00,North,-999,-999.0,-999.0,76,0.00,,,-99.99,,2013-08-23 06:21:00,
2013-08-23 01:52:00,77.0,70.0,-100.00,North,-999,-999.0,-999.0,80,0.00,,,0.00,,2013-08-23 06:52:00,
2013-08-23 02:22:00,77.0,71.0,-100.00,North,-999,-999.0,-999.0,83,0.00,,,0.00,,2013-08-23 07:22:00,
2013-08-23 02:52:00,76.0,72.0,-100.00,North,-999,-999.0,-999.0,86,0.00,,,-99.99,,2013-08-23 07:52:00,
2013-08-23 03:02:00,76.0,72.0,-100.00,North,-999,-999.0,-999.0,86,0.00,,,-99.99,,2013-08-23 08:02:00,
2013-08-23 03:22:00,76.0,72.0,-100.00,North,-999,-999.0,-999.0,88,0.00,,,0.00,,2013-08-23 08:22:00,
2013-08-23 03:52:00,76.0,72.0,-100.00,North,-999,-999.0,-999.0,88,0.00,,,0.00,,2013-08-23 08:52:00,
2013-08-23 04:21:00,75.0,72.0,-100.00,North,-999,-999.0,-999.0,90,0.00,,,0.00,,2013-08-23 09:21:00,
2013-08-23 04:33:00,75.0,72.0,-100.00,North,-999,-999.0,-999.0,90,0.00,,,0.00,,2013-08-23 09:33:00,
2013-08-23 04:43:00,75.0,72.0,-100.00,North,-999,-999.0,-999.0,90,0.00,,,0.00,,2013-08-23 09:43:00,
2013-08-23 04:53:00,75.0,72.0,-100.00,North,-999,-999.0,-999.0,90,0.00,,,0.00,,2013-08-23 09:53:00,
2013-08-23 05:13:00,74.0,72.0,-100.00,North,-999,-999.0,-999.0,94,0.00,,,0.00,,2013-08-23 10:13:00,
2013-08-23 05:23:00,74.0,72.0,-100.00,North,-999,-999.0,-999.0,94,0.00,,,0.00,,2013-08-23 10:23:00,
2013-08-23 05:53:00,74.0,72.0,-100.00,North,-999,-999.0,-999.0,96,0.00,,,0.00,,2013-08-23 10:53:00,
2013-08-23 06:11:00,73.0,73.0,-100.00,North,-999,-999.0,-999.0,98,0.00,,,-99.99,,2013-08-23 11:11:00,
2013-08-23 06:22:00,73.0,73.0,-100.00,North,-999,-999.0,-999.0,98,0.00,,,-99.99,,2013-08-23 11:22:00,
2013-08-23 06:53:00,72.0,72.0,-100.00,North,-999,-999.0,-999.0,100,0.00,,,0.00,,2013-08-23 11:53:00,
2013-08-23 07:22:00,72.0,72.0,-100.00,North,-999,-999.0,-999.0,100,-99.99,,,0.00,,2013-08-23 12:22:00,
2013-08-23 07:52:00,72.0,72.0,-100.00,North,-999,-999.0,-999.0,100,0.00,,,0.00,,2013-08-23 12:52:00,
2013-08-23 08:22:00,75.0,73.0,-100.00,North,-999,-999.0,-999.0,93,0.00,,,-99.99,,2013-08-23 13:22:00,
2013-08-23 08:42:00,76.0,73.0,-100.00,North,-999,-999.0,-999.0,91,0.00,,,0.00,,2013-08-23 13:42:00,
2013-08-23 08:52:00,76.0,73.0,-100.00,North,-999,-999.0,-999.0,91,0.00,,,0.00,,2013-08-23 13:52:00,
2013-08-23 09:21:00,77.0,73.0,-100.00,North,-999,-999.0,-999.0,87,0.00,,,0.00,,2013-08-23 14:21:00,
2013-08-23 09:42:00,80.0,72.0,-100.00,North,-999,-999.0,-999.0,77,0.00,,,0.00,,2013-08-23 14:42:00,
2013-08-23 09:52:00,80.0,72.0,-100.00,North,-999,-999.0,-999.0,77,0.00,,,0.00,,2013-08-23 14:52:00,
2013-08-23 10:01:00,80.0,72.0,-100.00,North,-999,-999.0,-999.0,77,0.00,,,0.00,,2013-08-23 15:01:00,
2013-08-23 10:22:00,82.0,67.0,-100.00,North,-999,-999.0,-999.0,60,0.00,,,0.00,,2013-08-23 15:22:00,
2013-08-23 10:54:00,83.0,66.0,-100.00,North,-999,-999.0,-999.0,55,-99.99,,,0.00,,2013-08-23 15:54:00,
2013-08-23 11:24:00,85.0,65.0,-100.00,North,-999,-999.0,-999.0,51,0.00,,,0.00,,2013-08-23 16:24:00,
2013-08-23 11:53:00,86.0,66.0,-100.00,North,-999,-999.0,-999.0,51,0.00,,,0.00,,2013-08-23 16:53:00,
2013-08-23 12:23:00,88.0,65.0,-100.00,North,-999,-999.0,-999.0,47,0.00,,,0.00,,2013-08-23 17:23:00,
2013-08-23 12:53:00,88.0,64.0,-100.00,North,-999,-999.0,-999.0,46,0.00,,,0.00,,2013-08-23 17:53:00,
2013-08-23 13:22:00,90.0,63.0,-100.00,North,-999,-999.0,-999.0,42,0.00,,,0.00,,2013-08-23 18:22:00,
2013-08-23 13:52:00,90.0,62.0,-100.00,North,-999,-999.0,-999.0,39,0.00,,,0.00,,2013-08-23 18:52:00,
2013-08-23 14:22:00,90.0,61.0,-100.00,North,-999,-999.0,-999.0,38,0.00,,,0.00,,2013-08-23 19:22:00,
2013-08-23 14:52:00,92.0,61.0,-100.00,North,-999,-999.0,-999.0,36,0.00,,,0.00,,2013-08-23 19:52:00,
2013-08-23 15:12:00,90.0,61.0,-100.00,North,-999,-999.0,-999.0,39,0.00,,,0.00,,2013-08-23 20:12:00,
2013-08-23 15:22:00,90.0,61.0,-100.00,North,-999,-999.0,-999.0,39,0.00,,,0.00,,2013-08-23 20:22:00,
2013-08-23 15:41:00,89.0,61.0,-100.00,North,-999,-999.0,-999.0,39,0.00,,,0.00,,2013-08-23 20:41:00,
2013-08-23 15:52:00,91.0,61.0,-100.00,North,-999,-999.0,-999.0,37,0.00,,,0.00,,2013-08-23 20:52:00,
2013-08-23 16:11:00,89.0,61.0,-100.00,North,-999,-999.0,-999.0,39,0.00,,,0.00,,2013-08-23 21:11:00,
2013-08-23 16:21:00,89.0,61.0,-100.00,North,-999,-999.0,-999.0,39,0.00,,,0.00,,2013-08-23 21:21:00,
2013-08-23 16:34:00,89.0,61.0,-100.00,North,-999,-999.0,-999.0,39,0.00,,,0.00,,2013-08-23 21:34:00,
2013-08-23 17:24:00,93.0,60.0,-100.00,North,-999,-999.0,-999.0,34,-99.99,,,0.00,,2013-08-23 22:24:00,
2013-08-23 17:53:00,92.0,60.0,-100.00,North,-999,-999.0,-999.0,34,0.00,,,0.00,,2013-08-23 22:53:00,
2013-08-23 18:22:00,91.0,60.0,-100.00,North,-999,-999.0,-999.0,36,0.00,,,0.00,,2013-08-23 23:22:00,
2013-08-23 18:54:00,91.0,61.0,-100.00,North,-999,-999.0,-999.0,37,0.00,,,0.00,,2013-08-23 23:54:00,
2013-08-23 19:21:00,90.0,60.0,-100.00,North,-999,-999.0,-999.0,36,0.00,,,0.00,,2013-08-24 00:21:00,
2013-08-23 19:53:00,90.0,59.0,-100.00,North,-999,-999.0,-999.0,36,0.00,,,0.00,,2013-08-24 00:53:00,
2013-08-23 20:22:00,87.0,61.0,-100.00,North,-999,-999.0,-999.0,42,0.00,,,0.00,,2013-08-24 01:22:00,
2013-08-23 20:42:00,86.0,62.0,-100.00,North,-999,-999.0,-999.0,45,0.00,,,0.00,,2013-08-24 01:42:00,
2013-08-23 20:53:00,86.0,62.0,-100.00,North,-999,-999.0,-999.0,45,0.00,,,0.00,,2013-08-24 01:53:00,
2013-08-23 21:22:00,83.0,63.0,-100.00,North,-999,-999.0,-999.0,51,0.00,,,0.00,,2013-08-24 02:22:00,
2013-08-23 21:52:00,82.0,61.0,-100.00,North,-999,-999.0,-999.0,49,-99.99,,,-99.99,,2013-08-24 02:52:00,
2013-08-23 22:22:00,82.0,63.0,-100.00,North,-999,-999.0,-999.0,52,0.00,,,0.00,,2013-08-24 03:22:00,
2013-08-23 22:54:00,82.0,62.0,-100.00,North,-999,-999.0,-999.0,51,0.00,,,0.00,,2013-08-24 03:54:00,
2013-08-23 23:24:00,81.0,63.0,-100.00,North,-999,-999.0,-999.0,54,0.00,,,0.00,,2013-08-24 04:24:00,
2013-08-23 23:53:00,81.0,62.0,-100.00,North,-999,-999.0,-999.0,53,0.00,,,-99.99,,2013-08-24 04:53:00,